Wahpeton, MN

4:09 AM CST on November 15, 2019 (GMT -0600)
Stern

Weather History for KBWP - September, 2019

Change the Weather History Date:

Monday, September 2, 2019

  Actual Average (KFFM) Record (KFFM)
Temperature  
Mean Temperature 63 °F -  
Max Temperature 73 °F 75 °F 95 °F (1960)
Min Temperature 53 °F 52 °F 37 °F (1974)
Degree Days  
Heating Degree Days 2    
Growing Degree Days 13 (Base 50)    
Moisture  
Dew Point 55 °F    
Average Humidity 77    
Maximum Humidity 94    
Minimum Humidity 53    
Precipitation  
Precipitation 0.55 in - - ()
Sea Level Pressure  
Sea Level Pressure 30.00 in    
Wind  
Wind Speed 5 mph ()    
Max Wind Speed 28 mph    
Max Gust Speed 46 mph    
Visibility 9.2 miles    
Events      
Averages and records for this station are not official NWS values.
T = Trace of Precipitation, MM = Missing Value Source: Averaged Metar Reports

Daily Weather History Graph

Daily Weather History Graph

Search for Another Location

Airport or City:

Astronomy

Sep. 02, 2019 Rise Set
Actual Time 6:47 AM CDT 8:03 PM CDT
Civil Twilight 6:16 AM CDT 8:34 PM CDT
Nautical Twilight 5:39 AM CDT 9:11 PM CDT
Astronomical Twilight 4:59 AM CDT 9:51 PM CDT
Moon 10:43 AM CDT (9/2) 10:12 PM CDT (9/2)
Length of Visible Light 14h 17m
Length of Day
13h 15m
Waxing Crescent, 15% of the Moon is Illuminated
Sep 2
Waxing Crescent
Sep 5
First Quarter
Sep 13
Full
Sep 21
Last Quarter
Sep 28
New

Hourly Weather History & Observations

Time (CDT) Temp. Dew Point Humidity Pressure Visibility Wind Dir Wind Speed Gust Speed Precip Events Conditions
12:15 AM 59.0 °F 55.4 °F 88% 30.10 in 10.0 mi Calm Calm - N/A   Unknown
12:35 AM 57.2 °F 55.4 °F 94% 30.10 in 10.0 mi Calm Calm - N/A   Unknown
12:55 AM 55.4 °F 53.6 °F 94% 30.10 in 10.0 mi Calm Calm - N/A   Unknown
1:15 AM 57.2 °F 53.6 °F 88% 30.10 in 10.0 mi Calm Calm - N/A   Unknown
1:35 AM 57.2 °F 53.6 °F 88% 30.11 in 10.0 mi Calm Calm - N/A   Unknown
1:55 AM 57.2 °F 53.6 °F 88% 30.11 in 5.0 mi Calm Calm - N/A   Unknown
2:15 AM 55.4 °F 53.6 °F 94% 30.11 in 1.5 mi Calm Calm - N/A   Unknown
2:35 AM 55.4 °F 53.6 °F 94% 30.11 in 5.0 mi Calm Calm - N/A   Unknown
2:55 AM 55.4 °F 51.8 °F 88% 30.11 in 2.0 mi Calm Calm - N/A   Unknown
3:15 AM 53.6 °F 51.8 °F 94% 30.11 in 5.0 mi Calm Calm - N/A   Unknown
3:35 AM 53.6 °F 51.8 °F 94% 30.11 in 7.0 mi Calm Calm - N/A   Unknown
3:55 AM 55.4 °F 53.6 °F 94% 30.11 in 10.0 mi Calm Calm - N/A   Unknown
4:15 AM 55.4 °F 53.6 °F 94% 30.11 in 7.0 mi Calm Calm - N/A   Unknown
4:35 AM 55.4 °F 53.6 °F 94% 30.11 in 10.0 mi Calm Calm - N/A   Unknown
4:55 AM 57.2 °F 53.6 °F 88% 30.11 in 10.0 mi NNE 3.5 mph - N/A   Unknown
5:15 AM 59.0 °F 55.4 °F 88% 30.11 in 10.0 mi NE 4.6 mph - N/A   Unknown
5:35 AM 60.8 °F 55.4 °F 82% 30.11 in 10.0 mi NE 3.5 mph - N/A   Unknown
5:55 AM 59.0 °F 55.4 °F 88% 30.11 in 10.0 mi ENE 3.5 mph - N/A   Unknown
6:15 AM 59.0 °F 55.4 °F 88% 30.12 in 10.0 mi Calm Calm - N/A   Unknown
6:35 AM 59.0 °F 55.4 °F 88% 30.12 in 10.0 mi NE 4.6 mph - N/A   Unknown
6:55 AM 59.0 °F 55.4 °F 88% 30.12 in 10.0 mi ENE 4.6 mph - N/A   Unknown
7:15 AM 59.0 °F 55.4 °F 88% 30.13 in 10.0 mi East 4.6 mph - N/A   Unknown
7:35 AM 59.0 °F 55.4 °F 88% 30.12 in 10.0 mi East 5.8 mph - N/A   Unknown
7:55 AM 59.0 °F 55.4 °F 88% 30.13 in 10.0 mi East 5.8 mph - N/A   Unknown
8:15 AM 60.8 °F 55.4 °F 82% 30.13 in 10.0 mi East 6.9 mph - N/A   Unknown
8:35 AM 60.8 °F 55.4 °F 82% 30.12 in 10.0 mi East 6.9 mph - N/A   Unknown
8:55 AM 60.8 °F 55.4 °F 82% 30.13 in 10.0 mi East 8.1 mph - N/A   Unknown
9:15 AM 62.6 °F 55.4 °F 77% 30.12 in 10.0 mi East 8.1 mph - N/A   Unknown
9:35 AM 62.6 °F 55.4 °F 77% 30.11 in 10.0 mi East 9.2 mph - N/A   Unknown
9:55 AM 64.4 °F 55.4 °F 73% 30.11 in 10.0 mi ESE 10.4 mph 16.1 mph N/A   Unknown
10:15 AM 66.2 °F 55.4 °F 68% 30.10 in 10.0 mi East 10.4 mph - N/A   Unknown
10:35 AM 68.0 °F 55.4 °F 64% 30.09 in 10.0 mi ESE 12.7 mph 16.1 mph N/A   Unknown
10:55 AM 68.0 °F 55.4 °F 64% 30.09 in 10.0 mi ESE 9.2 mph - N/A   Unknown
11:15 AM 69.8 °F 53.6 °F 56% 30.08 in 10.0 mi ESE 13.8 mph 18.4 mph N/A   Unknown
11:35 AM 69.8 °F 53.6 °F 56% 30.09 in 10.0 mi ESE 10.4 mph - N/A   Unknown
11:55 AM 69.8 °F 55.4 °F 60% 30.09 in 10.0 mi SE 10.4 mph - N/A   Unknown
12:15 PM 71.6 °F 55.4 °F 57% 30.08 in 10.0 mi SE 13.8 mph - N/A   Unknown
12:35 PM 71.6 °F 55.4 °F 57% 30.08 in 10.0 mi SE 6.9 mph - N/A   Unknown
12:55 PM 71.6 °F 55.4 °F 57% 30.06 in 10.0 mi ESE 9.2 mph - N/A   Unknown
1:15 PM 71.6 °F 55.4 °F 57% 30.05 in 10.0 mi SE 9.2 mph - N/A   Unknown
1:35 PM 73.4 °F 55.4 °F 53% 30.04 in 10.0 mi ESE 9.2 mph - N/A   Unknown
1:55 PM 73.4 °F 55.4 °F 53% 30.01 in 10.0 mi ESE 10.4 mph 16.1 mph N/A   Unknown
2:15 PM 73.4 °F 55.4 °F 53% 29.98 in 10.0 mi SE 15.0 mph 20.7 mph N/A   Unknown
2:35 PM 73.4 °F 55.4 °F 53% 29.98 in 10.0 mi SE 13.8 mph 23.0 mph N/A   Unknown
2:55 PM 73.4 °F 55.4 °F 53% 29.96 in 10.0 mi ESE 17.3 mph 21.9 mph N/A   Unknown
3:15 PM 73.4 °F 55.4 °F 53% 29.96 in 10.0 mi SE 12.7 mph 18.4 mph N/A   Unknown
3:35 PM 73.4 °F 55.4 °F 53% 29.95 in 10.0 mi SE 11.5 mph 18.4 mph N/A   Unknown
3:55 PM 73.4 °F 55.4 °F 53% 29.93 in 10.0 mi SE 15.0 mph 19.6 mph N/A   Unknown
4:15 PM 71.6 °F 55.4 °F 57% 29.90 in 10.0 mi SE 15.0 mph 23.0 mph N/A   Unknown
4:35 PM 71.6 °F 55.4 °F 57% 29.88 in 10.0 mi ESE 15.0 mph 23.0 mph N/A   Unknown
5:15 PM 71.6 °F 55.4 °F 57% 29.87 in 10.0 mi ESE 11.5 mph - N/A   Unknown
5:35 PM 71.6 °F 55.4 °F 57% 29.83 in 10.0 mi ESE 11.5 mph - N/A   Unknown
5:55 PM 69.8 °F 55.4 °F 60% 29.85 in 10.0 mi ESE 11.5 mph 16.1 mph N/A   Unknown
6:15 PM 69.8 °F 55.4 °F 60% 29.84 in 10.0 mi ESE 10.4 mph 18.4 mph N/A   Unknown
6:35 PM 69.8 °F 55.4 °F 60% 29.82 in 10.0 mi ESE 10.4 mph 16.1 mph N/A   Unknown
6:55 PM 68.0 °F 57.2 °F 68% 29.91 in 5.0 mi North 9.2 mph - N/A   Unknown
7:15 PM 59.0 °F 55.4 °F 88% 30.01 in 0.5 mi North 21.9 mph 46.0 mph 0.34 in   Unknown
7:35 PM 59.0 °F 55.4 °F 88% 29.71 in 4.0 mi ENE 27.6 mph 42.6 mph 0.55 in   Unknown
7:55 PM 59.0 °F 55.4 °F 88% 29.77 in 10.0 mi East 9.2 mph 23.0 mph 0.55 in   Unknown
8:15 PM 59.0 °F 55.4 °F 88% 29.82 in 10.0 mi South 5.8 mph - N/A   Unknown
8:35 PM 59.0 °F 55.4 °F 88% 29.81 in 10.0 mi South 9.2 mph - N/A   Unknown
8:55 PM 59.0 °F 55.4 °F 88% 29.81 in 10.0 mi South 5.8 mph - N/A   Unknown
9:15 PM 59.0 °F 55.4 °F 88% 29.81 in 10.0 mi South 3.5 mph - N/A   Unknown
9:35 PM 59.0 °F 55.4 °F 88% 29.81 in 10.0 mi SSE 4.6 mph - N/A   Unknown
9:55 PM 59.0 °F 55.4 °F 88% 29.80 in 10.0 mi SSE 8.1 mph - N/A   Unknown
10:15 PM 59.0 °F 55.4 °F 88% 29.79 in 10.0 mi South 9.2 mph - N/A   Unknown
10:35 PM 59.0 °F 55.4 °F 88% 29.79 in 10.0 mi South 10.4 mph - N/A   Unknown
10:55 PM 60.8 °F 55.4 °F 82% 29.79 in 10.0 mi South 8.1 mph - N/A   Unknown
11:15 PM 59.0 °F 55.4 °F 88% 29.78 in 10.0 mi SSE 5.8 mph - N/A   Unknown
11:35 PM 59.0 °F 55.4 °F 88% 29.79 in 10.0 mi South 3.5 mph - N/A   Unknown
11:55 PM 59.0 °F 55.4 °F 88% 29.79 in 10.0 mi Calm Calm - N/A   Unknown